Location: Street
(51.1247°N, 2.7429°W)
Time: 09:54:15
(UTC+00:00)

Tiros 1 - Pass Details

Date: 30 November 2020
Orbit: 630 x 663 km, 48.4° (Epoch: 21 January)

Event Time Altitude Azimuth Distance (km) Brightness Sun altitude
Rises 18:58:22 0° 275° (W) 2,991 11.9 -25.9°
Reaches altitude 10° 19:00:46 10° 271° (W) 2,075 10.8 -26.2°
Enters shadow 19:05:10 51° 206° (SSW) 830 7.7 -26.9°
Maximum altitude 19:05:24 51° 196° (SSW) 824 - -27.0°
Drops below altitude 10° 19:09:59 10° 121° (ESE) 2,052 - -27.7°
Sets 19:12:21 0° 116° (ESE) 2,955 - -28.1°
